Tracking 28790 objects as of 18-Apr-2024
HD Live streaming from Space Station
objects crossing your sky now

THORAD DELTA 1 DEB

Track THORAD DELTA 1 DEB now!
10-day predictions


NORAD ID: 8401
Int'l Code: 1974-089CD
Perigee: 1,349.3 km
Apogee: 1,453.5 km
Inclination: 101.5 °
Period: 113.7 minutes
Semi major axis: 7772 km
RCS: 0.0291 m2 (small)
Launch date: November 15, 1974
Source: United States (US)
Launch site: AIR FORCE WESTERN TEST RANGE (AFWTR)

Note: This is SATELLITE DEBRIS
Your satellite tracking list
Your tracking list is empty




NASA's NSSDC Master Catalog

Two Line Element Set (TLE):
1  8401U 74089CD  24109.77810781  .00000295  00000-0  17683-2 0  9999
2  8401 101.4765 183.2827 0067088 198.3746 287.0210 12.66980415285688
Source of the keplerian elements: AFSPC